Simultaneous Nadir Overpasses (SNOs) Predictions

Prediction of SNOs between GOES-17 and NOAA-20 Satellite Orbit:

Table of predicted SNOs for the next 14.0 days since TLE Epoch: 11/11/2023
Index Date Time (GOES-17) GOES-17 Lat,Lon NOAA-20 Lat,Lon Distance(km) Time Diff (sec)
1 11/11/2023 20:33:33 -0.00,-104.66 -0.62,-107.33 305.19 80
2 11/12/2023 20:17:29 0.00,-104.66 0.42,-102.81 210.96 80
3 11/14/2023 08:39:18 -0.00,-104.68 0.78,-108.08 387.48 80
4 11/15/2023 08:17:54 0.00,-104.68 -0.26,-103.56 128.21 80
5 11/16/2023 20:39:52 -0.01,-104.65 -0.94,-108.86 480.28 80
6 11/17/2023 20:23:47 -0.01,-104.64 0.05,-104.33 35.54 80
7 11/20/2023 08:26:52 0.01,-104.66 0.10,-105.08 47.30 80
8 11/21/2023 08:05:27 0.01,-104.66 -0.89,-100.54 468.44 80
9 11/22/2023 20:27:25 -0.01,-104.63 -0.29,-105.85 139.79 80
10 11/23/2023 20:11:20 -0.01,-104.63 0.71,-101.32 376.41 80
